BWA462 TTPP-SYCJ

Flight info

Callsign BWA462
Flight time 0h 50m
Altitude 31000
Route POS DCT VOKAV DCT GATUX DCT AKSIN DCT OGRUM
Aircraft B38M/M-SDE1FGHILORVWXY/HB1

Departure

Time 2026-04-26 02:24
Airport Piarco International Airport (TTPP)

Arrival

Time 2026-04-26 03:14
Airport Cheddi Jagan International Airport (SYCJ)
Time Latitude Longitude Altitude Speed Heading
2026-04-26 02:04 10.60057 -61.34061 19 ft 0 kts 148°
2026-04-26 02:17 10.60058 -61.34062 19 ft 2 kts 148°
2026-04-26 02:17 10.60072 -61.34072 -7 ft 2 kts 136°
2026-04-26 02:17 10.60082 -61.34085 28 ft 2 kts 119°
2026-04-26 02:17 10.60090 -61.34100 25 ft 2 kts 131°
2026-04-26 02:18 10.60104 -61.34108 22 ft 2 kts 166°
2026-04-26 02:18 10.60120 -61.34108 21 ft 2 kts 202°
2026-04-26 02:18 10.60132 -61.34100 22 ft 1 kts 227°
2026-04-26 02:18 10.60135 -61.34097 23 ft 0 kts 231°
2026-04-26 02:21 10.60128 -61.34106 22 ft 5 kts 233°
2026-04-26 02:22 10.60083 -61.34166 19 ft 15 kts 218°
2026-04-26 02:22 10.59972 -61.34184 19 ft 18 kts 180°
2026-04-26 02:22 10.59840 -61.34184 19 ft 20 kts 180°
2026-04-26 02:22 10.59721 -61.34194 20 ft 8 kts 228°
2026-04-26 02:23 10.59708 -61.34251 19 ft 9 kts 265°
2026-04-26 02:23 10.59707 -61.34325 19 ft 13 kts 270°
2026-04-26 02:23 10.59704 -61.34439 19 ft 20 kts 265°
2026-04-26 02:23 10.59600 -61.34530 19 ft 19 kts 181°
2026-04-26 02:24 10.59534 -61.34434 19 ft 26 kts 89°
2026-04-26 02:24 10.59539 -61.33951 18 ft 110 kts 89°
2026-04-26 02:24 10.59535 -61.32943 49 ft 173 kts 90°
2026-04-26 02:24 10.59542 -61.31766 1095 ft 164 kts 90°
2026-04-26 02:25 10.59549 -61.30595 2012 ft 169 kts 90°
2026-04-26 02:25 10.59573 -61.29348 2678 ft 182 kts 89°
2026-04-26 02:25 10.59559 -61.28043 3403 ft 191 kts 99°
2026-04-26 02:25 10.59016 -61.26740 3969 ft 212 kts 128°
2026-04-26 02:26 10.57828 -61.25715 4535 ft 239 kts 144°
2026-04-26 02:26 10.56411 -61.24731 5322 ft 248 kts 141°
2026-04-26 02:26 10.55054 -61.23645 6374 ft 250 kts 140°
2026-04-26 02:26 10.53679 -61.22505 7208 ft 258 kts 140°
2026-04-26 02:27 10.52273 -61.21346 8093 ft 263 kts 140°
2026-04-26 02:27 10.50814 -61.20163 8864 ft 274 kts 141°
2026-04-26 02:27 10.49286 -61.18928 9577 ft 286 kts 141°
2026-04-26 02:27 10.47733 -61.17675 10532 ft 283 kts 141°
2026-04-26 02:28 10.46153 -61.16383 11095 ft 301 kts 140°
2026-04-26 02:28 10.44472 -61.14998 11487 ft 320 kts 140°
2026-04-26 02:28 10.42697 -61.13541 11991 ft 334 kts 141°
2026-04-26 02:28 10.40871 -61.12049 12761 ft 337 kts 141°
2026-04-26 02:29 10.39032 -61.10554 13514 ft 342 kts 141°
2026-04-26 02:29 10.37163 -61.09035 14193 ft 346 kts 141°
2026-04-26 02:29 10.35280 -61.07506 14847 ft 349 kts 141°
2026-04-26 02:29 10.33371 -61.05958 15491 ft 352 kts 141°
2026-04-26 02:30 10.31447 -61.04397 16108 ft 356 kts 141°
2026-04-26 02:30 10.29504 -61.02821 16731 ft 359 kts 141°
2026-04-26 02:30 10.27566 -61.01248 17335 ft 362 kts 141°
2026-04-26 02:30 10.25561 -60.99623 17923 ft 366 kts 141°
2026-04-26 02:31 10.23587 -60.98023 18453 ft 370 kts 141°
2026-04-26 02:31 10.21568 -60.96386 18955 ft 372 kts 141°
2026-04-26 02:31 10.19536 -60.94739 19444 ft 375 kts 141°
2026-04-26 02:31 10.17493 -60.93083 19926 ft 377 kts 141°
2026-04-26 02:32 10.15429 -60.91412 20393 ft 380 kts 141°
2026-04-26 02:32 10.13357 -60.89733 20864 ft 383 kts 141°
2026-04-26 02:32 10.11264 -60.88038 21328 ft 386 kts 141°
2026-04-26 02:32 10.09155 -60.86330 21781 ft 389 kts 141°
2026-04-26 02:33 10.07032 -60.84611 22224 ft 392 kts 141°
2026-04-26 02:33 10.04898 -60.82884 22669 ft 394 kts 141°
2026-04-26 02:33 10.02743 -60.81139 23104 ft 397 kts 141°
2026-04-26 02:33 10.00574 -60.79385 23527 ft 400 kts 141°
2026-04-26 02:34 9.98389 -60.77617 23875 ft 403 kts 141°
2026-04-26 02:34 9.96192 -60.75841 24244 ft 404 kts 141°
2026-04-26 02:34 9.94010 -60.74075 24595 ft 407 kts 142°
2026-04-26 02:34 9.91764 -60.72259 24951 ft 409 kts 142°
2026-04-26 02:35 9.89563 -60.70481 25309 ft 411 kts 142°
2026-04-26 02:35 9.87326 -60.68673 25664 ft 413 kts 142°
2026-04-26 02:35 9.85066 -60.66847 25998 ft 415 kts 142°
2026-04-26 02:35 9.82803 -60.65019 26337 ft 417 kts 142°
2026-04-26 02:36 9.80525 -60.63179 26689 ft 420 kts 142°
2026-04-26 02:36 9.78238 -60.61332 27024 ft 422 kts 142°
2026-04-26 02:36 9.75937 -60.59474 27347 ft 424 kts 142°
2026-04-26 02:36 9.73624 -60.57606 27688 ft 426 kts 142°
2026-04-26 02:37 9.71294 -60.55726 27997 ft 428 kts 142°
2026-04-26 02:37 9.68955 -60.53838 28315 ft 431 kts 142°
2026-04-26 02:37 9.66607 -60.51945 28629 ft 433 kts 142°
2026-04-26 02:37 9.64242 -60.50037 28928 ft 435 kts 142°
2026-04-26 02:38 9.61870 -60.48124 29225 ft 437 kts 142°
2026-04-26 02:38 9.59482 -60.46198 29522 ft 439 kts 142°
2026-04-26 02:38 9.57087 -60.44268 29811 ft 441 kts 142°
2026-04-26 02:38 9.54675 -60.42323 30080 ft 444 kts 142°
2026-04-26 02:39 9.52257 -60.40375 30319 ft 446 kts 142°
2026-04-26 02:39 9.49826 -60.38416 30561 ft 447 kts 142°
2026-04-26 02:39 9.47417 -60.36476 30798 ft 449 kts 143°
2026-04-26 02:39 9.44931 -60.34473 30960 ft 452 kts 143°
2026-04-26 02:40 9.42454 -60.32477 30982 ft 458 kts 142°
2026-04-26 02:40 9.37431 -60.28431 30974 ft 469 kts 143°
2026-04-26 02:41 9.32287 -60.24291 30977 ft 474 kts 142°
2026-04-26 02:41 9.27120 -60.20135 30976 ft 474 kts 143°
2026-04-26 02:42 9.21959 -60.15986 30977 ft 474 kts 143°
2026-04-26 02:42 9.16794 -60.11836 30978 ft 474 kts 143°
2026-04-26 02:43 9.09054 -60.05619 30977 ft 474 kts 143°
2026-04-26 02:43 9.03888 -60.01472 30974 ft 474 kts 143°
2026-04-26 02:44 8.98722 -59.97327 30975 ft 474 kts 143°
2026-04-26 02:44 8.93560 -59.93186 30973 ft 473 kts 143°
2026-04-26 02:45 8.88074 -59.89564 30975 ft 471 kts 150°
2026-04-26 02:45 8.82414 -59.86225 30977 ft 471 kts 151°
2026-04-26 02:46 8.76799 -59.82924 30977 ft 470 kts 150°
2026-04-26 02:46 8.71127 -59.79590 30976 ft 470 kts 150°
2026-04-26 02:47 8.65467 -59.76265 30975 ft 471 kts 150°
2026-04-26 02:47 8.59797 -59.72935 30976 ft 471 kts 150°
2026-04-26 02:48 8.54134 -59.69611 30975 ft 471 kts 150°
2026-04-26 02:48 8.48471 -59.66288 30977 ft 471 kts 150°
2026-04-26 02:49 8.42806 -59.62964 30979 ft 471 kts 150°
2026-04-26 02:49 8.38099 -59.60204 30975 ft 471 kts 150°
2026-04-26 02:50 8.32422 -59.56876 30976 ft 471 kts 150°
2026-04-26 02:50 8.26746 -59.53549 30978 ft 472 kts 150°
2026-04-26 02:51 8.21061 -59.50218 30974 ft 472 kts 150°
2026-04-26 02:51 8.15380 -59.46891 30976 ft 472 kts 150°
2026-04-26 02:52 8.09692 -59.43561 30975 ft 472 kts 150°
2026-04-26 02:52 8.04003 -59.40231 30977 ft 472 kts 150°
2026-04-26 02:53 7.98317 -59.36905 30972 ft 472 kts 150°
2026-04-26 02:53 7.92635 -59.33581 30973 ft 472 kts 150°
2026-04-26 02:54 7.86948 -59.30256 30971 ft 472 kts 150°
2026-04-26 02:54 7.81296 -59.26952 30973 ft 473 kts 150°
2026-04-26 02:55 7.75601 -59.23624 30972 ft 473 kts 150°
2026-04-26 02:55 7.69906 -59.20296 30972 ft 473 kts 150°
2026-04-26 02:56 7.64207 -59.16969 30970 ft 473 kts 150°
2026-04-26 02:56 7.58509 -59.13642 30968 ft 472 kts 150°
2026-04-26 02:57 7.52823 -59.10324 30620 ft 472 kts 150°
2026-04-26 02:57 7.49985 -59.08668 30352 ft 472 kts 150°
2026-04-26 02:57 7.47140 -59.07008 30084 ft 473 kts 150°
2026-04-26 02:58 7.44287 -59.05344 29781 ft 474 kts 150°
2026-04-26 02:58 7.41435 -59.03680 29471 ft 474 kts 150°
2026-04-26 02:58 7.38575 -59.02013 29120 ft 474 kts 150°
2026-04-26 02:58 7.35728 -59.00352 28617 ft 470 kts 150°
2026-04-26 02:59 7.32927 -58.98719 28131 ft 462 kts 150°
2026-04-26 02:59 7.30165 -58.97110 27658 ft 454 kts 149°
2026-04-26 02:59 7.27449 -58.95527 27173 ft 448 kts 149°
2026-04-26 02:59 7.24764 -58.93962 26702 ft 442 kts 149°
2026-04-26 03:00 7.22102 -58.92411 26238 ft 442 kts 149°
2026-04-26 03:00 7.19473 -58.90880 25780 ft 441 kts 149°
2026-04-26 03:00 7.16827 -58.89338 25223 ft 438 kts 149°
2026-04-26 03:00 7.14189 -58.87802 24629 ft 437 kts 149°
2026-04-26 03:01 7.11564 -58.86273 24053 ft 435 kts 149°
2026-04-26 03:01 7.08943 -58.84748 23478 ft 434 kts 149°
2026-04-26 03:01 7.06336 -58.83230 22803 ft 432 kts 149°
2026-04-26 03:01 7.03736 -58.81717 22147 ft 430 kts 149°
2026-04-26 03:02 7.01152 -58.80212 21498 ft 428 kts 149°
2026-04-26 03:02 6.98577 -58.78714 20868 ft 427 kts 149°
2026-04-26 03:02 6.96006 -58.77218 20245 ft 425 kts 148°
2026-04-26 03:02 6.93458 -58.75736 19645 ft 423 kts 148°
2026-04-26 03:03 6.90913 -58.74255 19055 ft 421 kts 148°
2026-04-26 03:03 6.88387 -58.72786 18470 ft 419 kts 148°
2026-04-26 03:03 6.85872 -58.71323 17835 ft 417 kts 148°
2026-04-26 03:03 6.83365 -58.69866 17178 ft 415 kts 148°
2026-04-26 03:04 6.80868 -58.68414 16527 ft 413 kts 148°
2026-04-26 03:04 6.78381 -58.66969 15899 ft 411 kts 148°
2026-04-26 03:04 6.75910 -58.65532 15266 ft 409 kts 148°
2026-04-26 03:04 6.73447 -58.64100 14670 ft 408 kts 148°
2026-04-26 03:05 6.70999 -58.62678 14071 ft 406 kts 148°
2026-04-26 03:05 6.68559 -58.61260 13448 ft 404 kts 148°
2026-04-26 03:05 6.66124 -58.59845 12786 ft 402 kts 148°
2026-04-26 03:05 6.63737 -58.58459 12152 ft 401 kts 148°
2026-04-26 03:06 6.61339 -58.57065 11520 ft 392 kts 148°
2026-04-26 03:06 6.59033 -58.55726 10911 ft 377 kts 148°
2026-04-26 03:06 6.56693 -58.54644 10296 ft 368 kts 165°
2026-04-26 03:06 6.54190 -58.54310 9714 ft 358 kts 173°
2026-04-26 03:07 6.51733 -58.54111 9053 ft 350 kts 173°
2026-04-26 03:07 6.49331 -58.53919 8401 ft 342 kts 173°
2026-04-26 03:07 6.46983 -58.53731 7767 ft 335 kts 173°
2026-04-26 03:07 6.44675 -58.53547 7134 ft 330 kts 173°
2026-04-26 03:08 6.42409 -58.53362 6521 ft 324 kts 173°
2026-04-26 03:08 6.40173 -58.53177 5876 ft 320 kts 173°
2026-04-26 03:08 6.37975 -58.52982 5236 ft 315 kts 171°
2026-04-26 03:08 6.35958 -58.52247 4575 ft 307 kts 143°
2026-04-26 03:09 6.34610 -58.50649 3934 ft 300 kts 113°
2026-04-26 03:09 6.34171 -58.48633 3332 ft 295 kts 94°
2026-04-26 03:09 6.34062 -58.46660 3173 ft 276 kts 93°
2026-04-26 03:09 6.33967 -58.44803 3150 ft 262 kts 93°
2026-04-26 03:10 6.33880 -58.42994 3071 ft 256 kts 91°
2026-04-26 03:10 6.34235 -58.41279 3012 ft 252 kts 64°
2026-04-26 03:10 6.35340 -58.39904 3006 ft 256 kts 47°
2026-04-26 03:10 6.36614 -58.38640 2992 ft 257 kts 47°
2026-04-26 03:11 6.37888 -58.37371 2933 ft 258 kts 47°
2026-04-26 03:11 6.39153 -58.36106 2653 ft 256 kts 47°
2026-04-26 03:11 6.40417 -58.34845 2323 ft 255 kts 47°
2026-04-26 03:11 6.41667 -58.33595 2026 ft 247 kts 47°
2026-04-26 03:12 6.42813 -58.32452 1699 ft 219 kts 48°
2026-04-26 03:12 6.43885 -58.31486 1445 ft 197 kts 33°
2026-04-26 03:12 6.45120 -58.31146 1305 ft 172 kts 19°
2026-04-26 03:12 6.45982 -58.30496 1125 ft 151 kts 65°
2026-04-26 03:13 6.46230 -58.29492 894 ft 148 kts 77°
2026-04-26 03:13 6.46759 -58.28600 752 ft 152 kts 50°
2026-04-26 03:13 6.47472 -58.27805 536 ft 154 kts 45°
2026-04-26 03:13 6.48235 -58.27047 335 ft 154 kts 46°
2026-04-26 03:14 6.48991 -58.26282 118 ft 153 kts 46°
2026-04-26 03:14 6.49670 -58.25598 107 ft 120 kts 44°
2026-04-26 03:14 6.50147 -58.25123 107 ft 53 kts 45°
2026-04-26 03:14 6.50267 -58.25044 107 ft 13 kts 329°
2026-04-26 03:15 6.50334 -58.25108 107 ft 14 kts 313°
2026-04-26 03:15 6.50344 -58.25155 107 ft 3 kts 220°
2026-04-26 03:15 6.50331 -58.25168 106 ft 4 kts 225°
2026-04-26 03:15 6.50296 -58.25204 107 ft 9 kts 225°
2026-04-26 03:16 6.50279 -58.25249 107 ft 5 kts 291°
2026-04-26 03:16 6.50292 -58.25267 106 ft 0 kts 311°
2026-04-26 03:16 6.50296 -58.25271 106 ft 0 kts 313°